Time,TemperatureF,DewpointF,PressureIn,WindDirection,WindDirectionDegrees,WindSpeedMPH,WindSpeedGustMPH,Humidity,HourlyPrecipIn,Conditions,Clouds,dailyrainin,SoftwareType,DateUTC
2013-02-04 00:03:00,31.8,19.1,30.00,North,0,4.7,8.7,59,0.00,,,0.00,WUHU21523XXSP,2013-02-04 05:03:00,
2013-02-04 00:08:00,31.8,18.7,30.00,NW,306,6.1,7.8,58,0.00,,,0.00,WUHU21523XXSP,2013-02-04 05:08:00,
2013-02-04 00:13:00,31.8,18.7,30.00,NW,326,8.0,8.3,58,0.00,,,0.00,WUHU21523XXSP,2013-02-04 05:13:00,
2013-02-04 00:18:00,31.6,18.5,29.99,NNW,337,6.9,8.3,58,0.00,,,0.00,WUHU21523XXSP,2013-02-04 05:18:00,
2013-02-04 00:23:00,31.6,18.5,29.99,NW,326,7.6,7.8,58,0.00,,,0.00,WUHU21523XXSP,2013-02-04 05:23:00,
2013-02-04 00:28:00,31.6,18.5,29.99,NNW,327,7.7,8.3,58,0.00,,,0.00,WUHU21523XXSP,2013-02-04 05:28:00,
2013-02-04 00:33:00,31.6,19.0,29.99,NNW,327,7.1,8.3,59,0.00,,,0.00,WUHU21523XXSP,2013-02-04 05:33:00,
2013-02-04 00:38:00,31.6,19.0,29.99,NW,326,7.5,7.8,59,0.00,,,0.00,WUHU21523XXSP,2013-02-04 05:38:00,
2013-02-04 00:43:00,31.3,18.6,29.99,NNW,337,8.9,8.9,59,0.00,,,0.00,WUHU21523XXSP,2013-02-04 05:43:00,
2013-02-04 00:48:00,31.3,18.6,29.99,North,350,8.9,10.3,59,0.00,,,0.00,WUHU21523XXSP,2013-02-04 05:48:00,
2013-02-04 00:53:00,31.3,18.6,30.00,NNW,339,6.3,10.3,59,0.00,,,0.00,WUHU21523XXSP,2013-02-04 05:53:00,
2013-02-04 00:58:00,31.3,18.2,29.99,NW,315,8.6,10.3,58,0.00,,,0.00,WUHU21523XXSP,2013-02-04 05:58:00,
2013-02-04 01:03:00,31.3,18.2,29.99,North,0,7.2,9.4,58,0.00,,,0.00,WUHU21523XXSP,2013-02-04 06:03:00,
2013-02-04 01:08:00,31.1,17.6,29.99,NW,315,13.0,14.3,57,0.00,,,0.00,WUHU21523XXSP,2013-02-04 06:08:00,
2013-02-04 01:13:00,30.9,17.4,29.99,NW,323,9.0,14.3,57,0.00,,,0.00,WUHU21523XXSP,2013-02-04 06:13:00,
2013-02-04 01:18:00,30.7,17.2,29.99,North,4,6.7,11.6,57,0.00,,,0.00,WUHU21523XXSP,2013-02-04 06:18:00,
2013-02-04 01:23:00,30.7,17.2,29.99,WNW,298,7.0,9.6,57,0.00,,,0.00,WUHU21523XXSP,2013-02-04 06:23:00,
2013-02-04 01:28:00,30.7,17.2,29.99,NW,324,8.9,11.0,57,0.00,,,0.00,WUHU21523XXSP,2013-02-04 06:28:00,
2013-02-04 01:33:00,30.6,16.6,29.99,NW,315,8.0,11.0,56,0.00,,,0.00,WUHU21523XXSP,2013-02-04 06:33:00,
2013-02-04 01:38:00,30.6,16.6,30.00,WNW,291,6.1,9.6,56,0.00,,,0.00,WUHU21523XXSP,2013-02-04 06:38:00,
2013-02-04 01:43:00,30.4,16.5,30.00,NNE,20,5.1,9.6,56,0.00,,,0.00,WUHU21523XXSP,2013-02-04 06:43:00,
2013-02-04 01:48:00,30.4,16.5,30.00,NW,304,6.0,10.3,56,0.00,,,0.00,WUHU21523XXSP,2013-02-04 06:48:00,
2013-02-04 01:53:00,30.4,16.5,30.00,NNW,337,8.9,10.3,56,0.00,,,0.00,WUHU21523XXSP,2013-02-04 06:53:00,
2013-02-04 01:58:00,30.2,16.3,30.00,NNW,345,6.9,8.9,56,0.00,,,0.00,WUHU21523XXSP,2013-02-04 06:58:00,
2013-02-04 02:03:00,30.2,16.3,30.00,NW,315,6.3,8.9,56,0.00,,,0.00,WUHU21523XXSP,2013-02-04 07:03:00,
2013-02-04 02:08:00,30.0,16.1,30.00,NW,326,4.5,7.2,56,0.00,,,0.00,WUHU21523XXSP,2013-02-04 07:08:00,
2013-02-04 02:13:00,30.0,16.1,30.00,NW,315,4.5,7.2,56,0.00,,,0.00,WUHU21523XXSP,2013-02-04 07:13:00,
2013-02-04 02:18:00,30.0,16.1,30.00,NNW,337,5.4,5.4,56,0.00,,,0.00,WUHU21523XXSP,2013-02-04 07:18:00,
2013-02-04 02:23:00,29.8,16.0,29.99,NNW,336,7.3,8.3,56,0.00,,,0.00,WUHU21523XXSP,2013-02-04 07:23:00,
2013-02-04 02:28:00,29.8,16.0,30.00,NNW,337,6.9,8.3,56,0.00,,,0.00,WUHU21523XXSP,2013-02-04 07:28:00,
2013-02-04 02:33:00,29.8,16.0,30.00,NNW,337,8.2,8.3,56,0.00,,,0.00,WUHU21523XXSP,2013-02-04 07:33:00,
2013-02-04 02:38:00,29.8,16.0,30.00,NNW,337,6.5,8.3,56,0.00,,,0.00,WUHU21523XXSP,2013-02-04 07:38:00,
2013-02-04 02:43:00,29.7,15.8,30.00,WNW,302,6.5,8.1,56,0.00,,,0.00,WUHU21523XXSP,2013-02-04 07:43:00,
2013-02-04 02:48:00,29.5,15.7,30.00,NNW,337,4.3,7.2,56,0.00,,,0.00,WUHU21523XXSP,2013-02-04 07:48:00,
2013-02-04 02:53:00,29.5,15.7,30.01,NW,315,6.0,6.0,56,0.00,,,0.00,WUHU21523XXSP,2013-02-04 07:53:00,
2013-02-04 02:58:00,29.5,15.7,30.00,NNW,340,3.2,6.0,56,0.00,,,0.00,WUHU21523XXSP,2013-02-04 07:58:00,
2013-02-04 03:03:00,29.5,15.7,30.00,NW,315,5.4,6.0,56,0.00,,,0.00,WUHU21523XXSP,2013-02-04 08:03:00,
2013-02-04 03:08:00,29.3,15.1,30.00,NW,315,5.6,5.8,55,0.00,,,0.00,WUHU21523XXSP,2013-02-04 08:08:00,
2013-02-04 03:13:00,29.1,15.3,30.00,North,4,4.3,5.8,56,0.00,,,0.00,WUHU21523XXSP,2013-02-04 08:13:00,
2013-02-04 03:18:00,29.1,15.3,30.00,WNW,301,3.5,5.4,56,0.00,,,0.00,WUHU21523XXSP,2013-02-04 08:18:00,
2013-02-04 03:23:00,29.1,15.3,30.00,NNW,337,6.0,7.6,56,0.00,,,0.00,WUHU21523XXSP,2013-02-04 08:23:00,
2013-02-04 03:28:00,29.1,15.3,29.99,NW,315,3.7,7.6,56,0.00,,,0.00,WUHU21523XXSP,2013-02-04 08:28:00,
2013-02-04 03:33:00,29.1,15.3,29.99,NNW,327,7.3,8.3,56,0.00,,,0.00,WUHU21523XXSP,2013-02-04 08:33:00,
2013-02-04 03:38:00,28.9,15.2,29.99,NNW,337,4.4,8.3,56,0.00,,,0.00,WUHU21523XXSP,2013-02-04 08:38:00,
2013-02-04 03:43:00,28.9,15.2,30.00,NNW,341,3.5,8.3,56,0.00,,,0.00,WUHU21523XXSP,2013-02-04 08:43:00,
2013-02-04 03:48:00,28.9,15.2,30.00,NNW,333,2.8,6.0,56,0.00,,,0.00,WUHU21523XXSP,2013-02-04 08:48:00,
2013-02-04 03:53:00,28.8,15.0,30.00,NNW,331,3.2,4.7,56,0.00,,,0.00,WUHU21523XXSP,2013-02-04 08:53:00,
2013-02-04 03:58:00,28.8,15.0,30.00,NW,324,3.9,4.7,56,0.00,,,0.00,WUHU21523XXSP,2013-02-04 08:58:00,
2013-02-04 04:03:00,28.8,15.0,30.00,NNE,22,3.1,4.7,56,0.00,,,0.00,WUHU21523XXSP,2013-02-04 09:03:00,
2013-02-04 04:08:00,28.6,15.3,30.00,NNW,337,3.0,5.1,57,0.00,,,0.00,WUHU21523XXSP,2013-02-04 09:08:00,
2013-02-04 04:13:00,28.6,14.8,30.00,NNW,337,0.9,5.1,57,0.00,,,0.00,WUHU21523XXSP,2013-02-04 09:13:00,
2013-02-04 04:18:00,28.6,14.8,30.00,NW,304,2.8,4.3,56,0.00,,,0.00,WUHU21523XXSP,2013-02-04 09:18:00,
2013-02-04 04:23:00,28.6,15.0,30.00,NW,315,1.6,4.3,56,0.00,,,0.00,WUHU21523XXSP,2013-02-04 09:23:00,
2013-02-04 04:28:00,28.6,14.8,30.00,NW,309,2.5,3.8,56,0.00,,,0.00,WUHU21523XXSP,2013-02-04 09:28:00,
2013-02-04 04:33:00,28.6,14.8,30.01,NW,315,2.7,3.8,56,0.00,,,0.00,WUHU21523XXSP,2013-02-04 09:33:00,
2013-02-04 04:38:00,28.8,15.0,30.01,NW,315,3.3,4.0,56,0.00,,,0.00,WUHU21523XXSP,2013-02-04 09:38:00,
2013-02-04 04:43:00,28.8,15.0,30.02,NW,315,5.6,5.8,56,0.00,,,0.00,WUHU21523XXSP,2013-02-04 09:43:00,
2013-02-04 04:48:00,28.8,15.0,30.02,NNW,337,3.3,5.8,56,0.00,,,0.00,WUHU21523XXSP,2013-02-04 09:48:00,
2013-02-04 04:53:00,28.8,15.0,30.01,NW,323,5.0,6.5,56,0.00,,,0.00,WUHU21523XXSP,2013-02-04 09:53:00,
2013-02-04 04:58:00,28.6,14.8,30.02,NW,315,2.2,6.5,56,0.00,,,0.00,WUHU21523XXSP,2013-02-04 09:58:00,
2013-02-04 05:03:00,28.6,14.8,30.03,NW,315,2.2,3.6,56,0.00,,,0.00,WUHU21523XXSP,2013-02-04 10:03:00,
2013-02-04 05:08:00,28.6,14.8,30.04,NW,315,4.9,4.9,56,0.00,,,0.00,WUHU21523XXSP,2013-02-04 10:08:00,
2013-02-04 05:13:00,28.6,14.8,30.03,NW,304,1.1,4.9,56,0.00,,,0.00,WUHU21523XXSP,2013-02-04 10:13:00,
2013-02-04 05:18:00,28.6,14.8,30.03,SW,225,3.1,4.0,56,0.00,,,0.00,WUHU21523XXSP,2013-02-04 10:18:00,
2013-02-04 05:23:00,28.6,15.3,30.03,NW,315,0.0,4.0,57,0.00,,,0.00,WUHU21523XXSP,2013-02-04 10:23:00,
2013-02-04 05:28:00,28.6,15.3,30.03,NNW,333,1.0,3.1,57,0.00,,,0.00,WUHU21523XXSP,2013-02-04 10:28:00,
2013-02-04 05:33:00,28.4,15.1,30.03,NW,315,0.0,1.6,57,0.00,,,0.00,WUHU21523XXSP,2013-02-04 10:33:00,
2013-02-04 05:38:00,28.2,14.9,30.03,NNW,337,0.0,0.0,57,0.00,,,0.00,WUHU21523XXSP,2013-02-04 10:38:00,
2013-02-04 05:43:00,28.2,15.3,30.04,NW,315,0.0,0.0,58,0.00,,,0.00,WUHU21523XXSP,2013-02-04 10:43:00,
2013-02-04 05:48:00,28.2,15.3,30.04,NW,315,0.0,0.0,58,0.00,,,0.00,WUHU21523XXSP,2013-02-04 10:48:00,
2013-02-04 05:53:00,28.2,15.3,30.04,NW,315,0.0,0.0,58,0.00,,,0.00,WUHU21523XXSP,2013-02-04 10:53:00,
2013-02-04 05:58:00,28.2,15.7,30.04,NW,315,0.0,0.0,59,0.00,,,0.00,WUHU21523XXSP,2013-02-04 10:58:00,
2013-02-04 06:03:00,28.2,15.7,30.04,SSE,157,0.0,0.0,59,0.00,,,0.00,WUHU21523XXSP,2013-02-04 11:03:00,
2013-02-04 06:08:00,28.2,15.7,30.05,West,270,0.0,0.0,59,0.00,,,0.00,WUHU21523XXSP,2013-02-04 11:08:00,
2013-02-04 06:13:00,28.2,15.7,30.05,SSE,157,0.0,0.0,59,0.00,,,0.00,WUHU21523XXSP,2013-02-04 11:13:00,
2013-02-04 06:18:00,28.0,16.2,30.05,West,270,0.0,0.0,60,0.00,,,0.00,WUHU21523XXSP,2013-02-04 11:18:00,
2013-02-04 06:23:00,28.0,16.0,30.06,SW,225,0.0,0.0,60,0.00,,,0.00,WUHU21523XXSP,2013-02-04 11:23:00,
2013-02-04 06:28:00,28.0,16.0,30.06,SW,225,0.0,0.0,60,0.00,,,0.00,WUHU21523XXSP,2013-02-04 11:28:00,
2013-02-04 06:33:00,28.0,16.0,30.07,SW,225,0.0,0.0,60,0.00,,,0.00,WUHU21523XXSP,2013-02-04 11:33:00,
2013-02-04 06:38:00,28.0,16.0,30.07,SW,225,0.0,0.0,60,0.00,,,0.00,WUHU21523XXSP,2013-02-04 11:38:00,
2013-02-04 06:43:00,28.0,16.3,30.07,SW,225,0.0,0.0,61,0.00,,,0.00,WUHU21523XXSP,2013-02-04 11:43:00,
2013-02-04 06:48:00,28.0,16.3,30.08,WNW,292,0.0,1.8,61,0.00,,,0.00,WUHU21523XXSP,2013-02-04 11:48:00,
2013-02-04 06:53:00,27.9,16.2,30.08,South,180,0.0,1.8,61,0.00,,,0.00,WUHU21523XXSP,2013-02-04 11:53:00,
2013-02-04 06:58:00,27.7,16.2,30.08,South,180,0.0,0.0,61,0.00,,,0.00,WUHU21523XXSP,2013-02-04 11:58:00,
2013-02-04 07:03:00,27.7,16.3,30.08,South,180,0.0,0.0,62,0.00,,,0.00,WUHU21523XXSP,2013-02-04 12:03:00,
2013-02-04 07:08:00,27.7,16.3,30.08,South,180,0.0,0.0,62,0.00,,,0.00,WUHU21523XXSP,2013-02-04 12:08:00,
2013-02-04 07:13:00,27.7,16.3,30.08,South,180,0.0,0.0,62,0.00,,,0.00,WUHU21523XXSP,2013-02-04 12:13:00,
2013-02-04 07:18:00,27.7,16.3,30.08,South,180,0.0,0.0,62,0.00,,,0.00,WUHU21523XXSP,2013-02-04 12:18:00,
2013-02-04 07:23:00,27.5,16.2,30.08,South,180,0.0,0.0,62,0.00,,,0.00,WUHU21523XXSP,2013-02-04 12:23:00,
2013-02-04 07:28:00,27.5,16.2,30.08,South,180,0.0,0.0,62,0.00,,,0.00,WUHU21523XXSP,2013-02-04 12:28:00,
2013-02-04 07:33:00,27.3,16.0,30.08,South,180,0.0,0.0,62,0.00,,,0.00,WUHU21523XXSP,2013-02-04 12:33:00,
2013-02-04 07:38:00,27.5,16.5,30.09,South,180,0.0,0.0,63,0.00,,,0.00,WUHU21523XXSP,2013-02-04 12:38:00,
2013-02-04 07:43:00,27.3,16.3,30.09,South,180,0.0,0.0,63,0.00,,,0.00,WUHU21523XXSP,2013-02-04 12:43:00,
2013-02-04 07:48:00,27.3,16.3,30.09,South,180,0.0,0.0,63,0.00,,,0.00,WUHU21523XXSP,2013-02-04 12:48:00,
2013-02-04 07:53:00,27.3,16.7,30.09,South,180,0.0,0.0,64,0.00,,,0.00,WUHU21523XXSP,2013-02-04 12:53:00,
2013-02-04 07:58:00,27.5,16.9,30.10,South,180,0.0,0.0,64,0.00,,,0.00,WUHU21523XXSP,2013-02-04 12:58:00,
2013-02-04 08:03:00,27.5,16.9,30.11,South,180,0.0,0.0,64,0.00,,,0.00,WUHU21523XXSP,2013-02-04 13:03:00,
2013-02-04 08:08:00,27.5,16.9,30.10,South,180,0.0,0.0,64,0.00,,,0.00,WUHU21523XXSP,2013-02-04 13:08:00,
2013-02-04 08:13:00,27.7,16.9,30.11,South,180,0.0,0.0,64,0.00,,,0.00,WUHU21523XXSP,2013-02-04 13:13:00,
2013-02-04 08:18:00,27.7,17.1,30.11,South,180,0.0,0.0,64,0.00,,,0.00,WUHU21523XXSP,2013-02-04 13:18:00,
2013-02-04 08:23:00,27.7,17.1,30.12,South,180,0.0,0.0,64,0.00,,,0.00,WUHU21523XXSP,2013-02-04 13:23:00,
2013-02-04 08:28:00,27.7,17.1,30.12,NW,315,0.0,0.0,64,0.00,,,0.00,WUHU21523XXSP,2013-02-04 13:28:00,
2013-02-04 08:33:00,27.7,17.4,30.12,WNW,292,0.0,0.0,65,0.00,,,0.00,WUHU21523XXSP,2013-02-04 13:33:00,
2013-02-04 08:38:00,28.0,17.8,30.12,WNW,292,2.0,2.0,65,0.00,,,0.00,WUHU21523XXSP,2013-02-04 13:38:00,
2013-02-04 08:43:00,28.0,17.4,30.12,NNW,327,1.2,2.0,64,0.00,,,0.00,WUHU21523XXSP,2013-02-04 13:43:00,
2013-02-04 08:48:00,28.2,17.6,30.13,WNW,292,0.0,2.0,64,0.00,,,0.00,WUHU21523XXSP,2013-02-04 13:48:00,
2013-02-04 08:53:00,28.2,17.6,30.13,NW,307,1.2,1.6,64,0.00,,,0.00,WUHU21523XXSP,2013-02-04 13:53:00,
2013-02-04 08:58:00,28.6,17.6,30.12,NNW,329,5.2,6.5,63,0.00,,,0.00,WUHU21523XXSP,2013-02-04 13:58:00,
2013-02-04 09:03:00,28.8,17.7,30.12,NNW,337,1.3,6.5,63,0.00,,,0.00,WUHU21523XXSP,2013-02-04 14:03:00,
2013-02-04 09:08:00,28.8,17.7,30.12,NW,315,3.3,4.0,63,0.00,,,0.00,WUHU21523XXSP,2013-02-04 14:08:00,
2013-02-04 09:13:00,28.9,17.9,30.12,NNW,337,4.3,6.5,63,0.00,,,0.00,WUHU21523XXSP,2013-02-04 14:13:00,
2013-02-04 09:18:00,28.9,17.9,30.12,West,261,0.9,6.5,63,0.00,,,0.00,WUHU21523XXSP,2013-02-04 14:18:00,
2013-02-04 09:23:00,29.1,18.1,30.12,NW,323,3.7,4.9,63,0.00,,,0.00,WUHU21523XXSP,2013-02-04 14:23:00,
2013-02-04 09:28:00,29.1,18.1,30.12,NW,315,2.7,4.9,63,0.00,,,0.00,WUHU21523XXSP,2013-02-04 14:28:00,
2013-02-04 09:33:00,29.3,18.2,30.12,NW,315,2.0,4.0,63,0.00,,,0.00,WUHU21523XXSP,2013-02-04 14:33:00,
2013-02-04 09:38:00,29.5,18.4,30.12,NW,315,5.4,7.8,63,0.00,,,0.00,WUHU21523XXSP,2013-02-04 14:38:00,
2013-02-04 09:43:00,29.7,18.2,30.12,NW,315,4.2,7.8,62,0.00,,,0.00,WUHU21523XXSP,2013-02-04 14:43:00,
2013-02-04 09:48:00,29.7,18.2,30.12,NW,315,6.7,6.7,62,0.00,,,0.00,WUHU21523XXSP,2013-02-04 14:48:00,
2013-02-04 09:53:00,29.8,18.4,30.12,NW,315,4.3,6.7,62,0.00,,,0.00,WUHU21523XXSP,2013-02-04 14:53:00,
2013-02-04 09:58:00,30.0,18.5,30.12,NNW,328,3.4,6.0,62,0.00,,,0.00,WUHU21523XXSP,2013-02-04 14:58:00,
2013-02-04 10:03:00,30.0,18.2,30.12,NNW,328,4.4,5.1,61,0.00,,,0.00,WUHU21523XXSP,2013-02-04 15:03:00,
2013-02-04 10:08:00,30.0,18.2,30.11,NW,315,3.4,5.1,61,0.00,,,0.00,WUHU21523XXSP,2013-02-04 15:08:00,
2013-02-04 10:13:00,30.4,18.5,30.11,NW,323,1.0,3.8,61,0.00,,,0.00,WUHU21523XXSP,2013-02-04 15:13:00,
2013-02-04 10:18:00,30.6,19.0,30.11,SW,225,0.0,3.6,62,0.00,,,0.00,WUHU21523XXSP,2013-02-04 15:18:00,
2013-02-04 10:23:00,30.7,19.2,30.11,SW,225,0.0,1.3,62,0.00,,,0.00,WUHU21523XXSP,2013-02-04 15:23:00,
2013-02-04 10:28:00,30.9,19.4,30.12,NW,315,1.3,1.3,62,0.00,,,0.00,WUHU21523XXSP,2013-02-04 15:28:00,
2013-02-04 10:33:00,31.1,19.2,30.12,SSW,202,2.2,2.2,61,0.00,,,0.00,WUHU21523XXSP,2013-02-04 15:33:00,
2013-02-04 10:38:00,31.1,19.2,30.12,SW,225,1.8,2.2,61,0.00,,,0.00,WUHU21523XXSP,2013-02-04 15:38:00,
2013-02-04 10:43:00,31.3,19.4,30.11,West,270,0.0,3.6,61,0.00,,,0.00,WUHU21523XXSP,2013-02-04 15:43:00,
2013-02-04 10:48:00,31.3,19.4,30.11,South,180,2.2,3.6,61,0.00,,,0.00,WUHU21523XXSP,2013-02-04 15:48:00,
2013-02-04 10:53:00,31.6,19.8,30.11,NW,315,0.0,2.2,61,0.00,,,0.00,WUHU21523XXSP,2013-02-04 15:53:00,
2013-02-04 10:58:00,31.6,19.8,30.11,NNW,327,1.8,2.9,61,0.00,,,0.00,WUHU21523XXSP,2013-02-04 15:58:00,
2013-02-04 11:03:00,31.6,19.4,30.11,NW,315,1.5,2.9,60,0.00,,,0.00,WUHU21523XXSP,2013-02-04 16:03:00,
2013-02-04 11:08:00,31.6,19.4,30.11,NW,315,1.8,2.2,60,0.00,,,0.00,WUHU21523XXSP,2013-02-04 16:08:00,
2013-02-04 11:13:00,31.8,19.6,30.11,NW,315,2.0,2.9,60,0.00,,,0.00,WUHU21523XXSP,2013-02-04 16:13:00,
2013-02-04 11:18:00,31.8,19.6,30.11,NW,315,3.9,5.1,60,0.00,,,0.00,WUHU21523XXSP,2013-02-04 16:18:00,
2013-02-04 11:23:00,31.8,19.1,30.11,NW,315,2.0,5.1,59,0.00,,,0.00,WUHU21523XXSP,2013-02-04 16:23:00,
2013-02-04 11:28:00,32.2,19.9,30.11,NW,315,0.0,2.0,60,0.00,,,0.00,WUHU21523XXSP,2013-02-04 16:28:00,
2013-02-04 11:33:00,32.2,19.5,30.10,West,275,2.3,3.6,59,0.00,,,0.00,WUHU21523XXSP,2013-02-04 16:33:00,
2013-02-04 11:38:00,32.4,19.7,30.10,WSW,258,3.2,5.1,59,0.00,,,0.00,WUHU21523XXSP,2013-02-04 16:38:00,
2013-02-04 11:43:00,32.7,20.0,30.10,North,4,3.5,5.1,59,0.00,,,0.00,WUHU21523XXSP,2013-02-04 16:43:00,
2013-02-04 11:48:00,32.9,20.1,30.10,North,0,2.0,4.5,59,0.00,,,0.00,WUHU21523XXSP,2013-02-04 16:48:00,
2013-02-04 11:53:00,33.1,20.3,30.10,West,270,0.0,4.5,59,0.00,,,0.00,WUHU21523XXSP,2013-02-04 16:53:00,
2013-02-04 11:58:00,33.4,20.6,30.09,NW,307,2.6,4.9,59,0.00,,,0.00,WUHU21523XXSP,2013-02-04 16:58:00,
2013-02-04 12:03:00,33.6,20.8,30.10,NNW,337,0.4,4.9,59,0.00,,,0.00,WUHU21523XXSP,2013-02-04 17:03:00,
2013-02-04 12:08:00,33.6,20.8,30.10,NNE,22,2.9,2.9,59,0.00,,,0.00,WUHU21523XXSP,2013-02-04 17:08:00,
2013-02-04 12:13:00,34.0,20.7,30.09,WNW,292,0.0,2.9,58,0.00,,,0.00,WUHU21523XXSP,2013-02-04 17:13:00,
2013-02-04 12:18:00,34.0,20.7,30.09,WNW,292,0.0,0.0,58,0.00,,,0.00,WUHU21523XXSP,2013-02-04 17:18:00,
2013-02-04 12:23:00,34.2,21.1,30.09,SW,225,1.3,1.3,59,0.00,,,0.00,WUHU21523XXSP,2013-02-04 17:23:00,
2013-02-04 12:28:00,34.3,21.5,30.08,South,180,2.0,4.7,59,0.00,,,0.00,WUHU21523XXSP,2013-02-04 17:28:00,
2013-02-04 12:33:00,34.5,21.7,30.08,ENE,67,0.0,4.7,59,0.00,,,0.00,WUHU21523XXSP,2013-02-04 17:33:00,
2013-02-04 12:38:00,34.7,21.8,30.08,ENE,67,0.0,0.0,59,0.00,,,0.00,WUHU21523XXSP,2013-02-04 17:38:00,
2013-02-04 12:43:00,34.9,22.0,30.07,South,180,0.0,0.0,59,0.00,,,0.00,WUHU21523XXSP,2013-02-04 17:43:00,
2013-02-04 12:48:00,34.9,22.0,30.07,South,180,0.0,0.0,59,0.00,,,0.00,WUHU21523XXSP,2013-02-04 17:48:00,
2013-02-04 12:53:00,35.2,22.4,30.07,SSW,202,0.0,0.0,59,0.00,,,0.00,WUHU21523XXSP,2013-02-04 17:53:00,
2013-02-04 12:58:00,35.2,22.0,30.07,SSW,202,2.0,2.0,58,0.00,,,0.00,WUHU21523XXSP,2013-02-04 17:58:00,
2013-02-04 13:03:00,35.2,22.0,30.06,SSW,202,0.0,2.0,58,0.00,,,0.00,WUHU21523XXSP,2013-02-04 18:03:00,
2013-02-04 13:08:00,35.4,22.1,30.06,SSW,202,2.0,2.0,58,0.00,,,0.00,WUHU21523XXSP,2013-02-04 18:08:00,
2013-02-04 13:13:00,35.4,21.7,30.06,SSW,202,0.0,2.0,57,0.00,,,0.00,WUHU21523XXSP,2013-02-04 18:13:00,
2013-02-04 13:18:00,35.4,21.7,30.06,SSW,202,0.0,2.9,57,0.00,,,0.00,WUHU21523XXSP,2013-02-04 18:18:00,
2013-02-04 13:23:00,35.4,21.7,30.05,SSW,202,0.0,2.9,57,0.00,,,0.00,WUHU21523XXSP,2013-02-04 18:23:00,
2013-02-04 13:28:00,35.4,21.7,30.05,SSW,202,0.0,0.0,57,0.00,,,0.00,WUHU21523XXSP,2013-02-04 18:28:00,
2013-02-04 13:33:00,35.4,21.7,30.04,SSW,202,0.7,0.7,57,0.00,,,0.00,WUHU21523XXSP,2013-02-04 18:33:00,
2013-02-04 13:38:00,35.6,21.9,30.04,SSW,202,0.0,0.7,57,0.00,,,0.00,WUHU21523XXSP,2013-02-04 18:38:00,
2013-02-04 13:43:00,35.6,21.9,30.04,SSW,202,0.0,0.0,57,0.00,,,0.00,WUHU21523XXSP,2013-02-04 18:43:00,
2013-02-04 13:48:00,35.8,22.0,30.04,SSW,202,0.0,0.0,57,0.00,,,0.00,WUHU21523XXSP,2013-02-04 18:48:00,
2013-02-04 13:53:00,35.8,22.5,30.03,SSW,202,0.0,0.0,58,0.00,,,0.00,WUHU21523XXSP,2013-02-04 18:53:00,
2013-02-04 13:58:00,36.1,22.8,30.03,South,180,0.0,3.1,58,0.00,,,0.00,WUHU21523XXSP,2013-02-04 18:58:00,
2013-02-04 14:03:00,36.3,23.0,30.03,South,180,2.0,3.1,58,0.00,,,0.00,WUHU21523XXSP,2013-02-04 19:03:00,
2013-02-04 14:08:00,36.3,23.0,30.03,NE,45,0.0,2.0,58,0.00,,,0.00,WUHU21523XXSP,2013-02-04 19:08:00,
2013-02-04 14:13:00,36.7,23.3,30.02,SSE,157,0.0,0.0,58,0.00,,,0.00,WUHU21523XXSP,2013-02-04 19:13:00,
2013-02-04 14:18:00,36.7,23.3,30.02,South,180,2.7,2.7,58,0.00,,,0.00,WUHU21523XXSP,2013-02-04 19:18:00,
2013-02-04 14:23:00,36.9,23.4,30.02,SSW,202,0.0,2.7,58,0.00,,,0.00,WUHU21523XXSP,2013-02-04 19:23:00,
2013-02-04 14:28:00,37.0,23.6,30.02,SSW,202,2.7,2.7,58,0.00,,,0.00,WUHU21523XXSP,2013-02-04 19:28:00,
2013-02-04 14:33:00,37.0,23.6,30.02,NE,45,0.0,2.7,58,0.00,,,0.00,WUHU21523XXSP,2013-02-04 19:33:00,
2013-02-04 14:38:00,37.2,23.8,30.02,NE,45,0.0,2.7,58,0.00,,,0.00,WUHU21523XXSP,2013-02-04 19:38:00,
2013-02-04 14:43:00,37.6,24.1,30.01,East,90,0.0,0.0,58,0.00,,,0.00,WUHU21523XXSP,2013-02-04 19:43:00,
2013-02-04 14:48:00,37.8,24.3,30.01,East,90,0.0,0.0,58,0.00,,,0.00,WUHU21523XXSP,2013-02-04 19:48:00,
2013-02-04 14:53:00,37.9,24.4,30.01,South,180,2.7,2.7,58,0.00,,,0.00,WUHU21523XXSP,2013-02-04 19:53:00,
2013-02-04 14:58:00,38.1,24.2,30.01,South,180,0.0,2.7,57,0.00,,,0.00,WUHU21523XXSP,2013-02-04 19:58:00,
2013-02-04 15:03:00,38.1,24.2,30.01,South,180,0.0,0.0,57,0.00,,,0.00,WUHU21523XXSP,2013-02-04 20:03:00,
2013-02-04 15:08:00,38.1,24.2,30.01,NNE,22,1.6,1.6,57,0.00,,,0.00,WUHU21523XXSP,2013-02-04 20:08:00,
2013-02-04 15:13:00,38.3,23.9,30.01,NNE,22,0.0,1.6,56,0.00,,,0.00,WUHU21523XXSP,2013-02-04 20:13:00,
2013-02-04 15:18:00,38.3,23.9,30.01,SSE,157,0.0,0.0,56,0.00,,,0.00,WUHU21523XXSP,2013-02-04 20:18:00,
2013-02-04 15:23:00,38.5,24.5,30.00,South,180,1.1,1.1,57,0.00,,,0.00,WUHU21523XXSP,2013-02-04 20:23:00,
2013-02-04 15:28:00,38.5,24.5,30.00,South,180,0.0,1.1,57,0.00,,,0.00,WUHU21523XXSP,2013-02-04 20:28:00,
2013-02-04 15:33:00,38.5,24.5,30.00,South,180,0.0,0.0,57,0.00,,,0.00,WUHU21523XXSP,2013-02-04 20:33:00,
2013-02-04 15:38:00,38.7,24.6,29.99,South,180,0.0,0.0,57,0.00,,,0.00,WUHU21523XXSP,2013-02-04 20:38:00,
2013-02-04 15:48:00,38.8,24.8,29.99,East,90,0.0,0.7,57,0.00,,,0.00,WUHU21523XXSP,2013-02-04 20:48:00,
2013-02-04 15:53:00,38.8,24.8,29.99,East,90,0.0,0.0,57,0.00,,,0.00,WUHU21523XXSP,2013-02-04 20:53:00,
2013-02-04 15:58:00,38.8,24.8,29.99,East,90,0.0,0.0,57,0.00,,,0.00,WUHU21523XXSP,2013-02-04 20:58:00,
2013-02-04 16:03:00,38.8,24.4,29.99,East,90,0.0,0.0,56,0.00,,,0.00,WUHU21523XXSP,2013-02-04 21:03:00,
2013-02-04 16:08:00,38.8,24.4,29.99,East,90,0.0,0.0,56,0.00,,,0.00,WUHU21523XXSP,2013-02-04 21:08:00,
2013-02-04 16:13:00,38.8,24.4,29.98,East,90,0.0,0.0,56,0.00,,,0.00,WUHU21523XXSP,2013-02-04 21:13:00,
2013-02-04 16:18:00,38.8,24.4,29.98,East,90,0.0,0.0,56,0.00,,,0.00,WUHU21523XXSP,2013-02-04 21:18:00,
2013-02-04 16:23:00,38.8,24.8,29.98,East,90,0.0,0.0,57,0.00,,,0.00,WUHU21523XXSP,2013-02-04 21:23:00,
2013-02-04 16:28:00,38.7,24.2,29.98,East,90,0.0,0.0,56,0.00,,,0.00,WUHU21523XXSP,2013-02-04 21:28:00,
2013-02-04 16:33:00,38.5,24.5,29.98,East,90,0.0,0.0,57,0.00,,,0.00,WUHU21523XXSP,2013-02-04 21:33:00,
2013-02-04 16:38:00,38.5,24.5,29.97,East,90,0.0,0.0,57,0.00,,,0.00,WUHU21523XXSP,2013-02-04 21:38:00,
2013-02-04 16:43:00,38.5,24.5,29.97,East,90,0.0,0.0,57,0.00,,,0.00,WUHU21523XXSP,2013-02-04 21:43:00,
2013-02-04 16:48:00,38.3,24.3,29.97,East,90,0.0,0.0,57,0.00,,,0.00,WUHU21523XXSP,2013-02-04 21:48:00,
2013-02-04 16:53:00,38.3,24.3,29.96,East,90,0.0,0.0,57,0.00,,,0.00,WUHU21523XXSP,2013-02-04 21:53:00,
2013-02-04 16:58:00,38.1,24.2,29.96,East,90,0.0,0.0,57,0.00,,,0.00,WUHU21523XXSP,2013-02-04 21:58:00,
2013-02-04 17:03:00,38.1,24.2,29.96,East,90,0.0,0.0,57,0.00,,,0.00,WUHU21523XXSP,2013-02-04 22:03:00,
2013-02-04 17:08:00,38.1,24.6,29.96,East,90,0.0,0.0,58,0.00,,,0.00,WUHU21523XXSP,2013-02-04 22:08:00,
2013-02-04 17:13:00,37.9,24.4,29.96,East,90,0.0,0.0,58,0.00,,,0.00,WUHU21523XXSP,2013-02-04 22:13:00,
2013-02-04 17:18:00,37.9,24.4,29.96,East,90,0.0,0.0,58,0.00,,,0.00,WUHU21523XXSP,2013-02-04 22:18:00,
2013-02-04 17:23:00,37.8,24.3,29.96,East,90,0.0,0.0,58,0.00,,,0.00,WUHU21523XXSP,2013-02-04 22:23:00,
2013-02-04 17:28:00,37.6,24.1,29.96,East,90,0.0,0.0,58,0.00,,,0.00,WUHU21523XXSP,2013-02-04 22:28:00,
2013-02-04 17:33:00,37.4,23.9,29.96,East,90,0.0,0.0,58,0.00,,,0.00,WUHU21523XXSP,2013-02-04 22:33:00,
2013-02-04 17:38:00,37.2,23.8,29.96,East,90,0.0,0.0,58,0.00,,,0.00,WUHU21523XXSP,2013-02-04 22:38:00,
2013-02-04 17:43:00,37.0,23.8,29.96,East,90,0.0,0.0,58,0.00,,,0.00,WUHU21523XXSP,2013-02-04 22:43:00,
2013-02-04 17:48:00,37.0,24.0,29.96,East,90,0.0,0.0,59,0.00,,,0.00,WUHU21523XXSP,2013-02-04 22:48:00,
2013-02-04 17:53:00,36.7,23.7,29.95,East,90,0.0,0.0,59,0.00,,,0.00,WUHU21523XXSP,2013-02-04 22:53:00,
2013-02-04 17:58:00,36.7,23.7,29.96,East,90,0.0,0.0,59,0.00,,,0.00,WUHU21523XXSP,2013-02-04 22:58:00,
2013-02-04 18:03:00,36.5,23.6,29.96,East,90,0.0,0.0,59,0.00,,,0.00,WUHU21523XXSP,2013-02-04 23:03:00,
2013-02-04 18:08:00,36.3,23.8,29.96,East,90,0.0,0.0,60,0.00,,,0.00,WUHU21523XXSP,2013-02-04 23:08:00,
2013-02-04 18:13:00,36.3,23.8,29.96,East,90,0.0,0.0,60,0.00,,,0.00,WUHU21523XXSP,2013-02-04 23:13:00,
2013-02-04 18:18:00,36.1,23.7,29.96,East,90,0.0,0.0,60,0.00,,,0.00,WUHU21523XXSP,2013-02-04 23:18:00,
2013-02-04 18:23:00,36.1,23.7,29.96,East,90,0.0,0.0,60,0.00,,,0.00,WUHU21523XXSP,2013-02-04 23:23:00,
2013-02-04 18:28:00,36.0,23.5,29.96,East,90,0.0,0.0,60,0.00,,,0.00,WUHU21523XXSP,2013-02-04 23:28:00,
2013-02-04 18:33:00,35.8,23.7,29.96,East,90,0.0,0.0,61,0.00,,,0.00,WUHU21523XXSP,2013-02-04 23:33:00,
2013-02-04 18:38:00,35.8,23.7,29.96,East,90,0.0,0.0,61,0.00,,,0.00,WUHU21523XXSP,2013-02-04 23:38:00,
2013-02-04 18:48:00,35.4,23.4,29.97,East,90,0.0,0.0,61,0.00,,,0.00,WUHU21523XXSP,2013-02-04 23:48:00,
2013-02-04 18:53:00,35.2,23.2,29.97,East,90,0.0,0.0,61,0.00,,,0.00,WUHU21523XXSP,2013-02-04 23:53:00,
2013-02-04 18:58:00,35.2,23.2,29.97,East,90,0.0,0.0,61,0.00,,,0.00,WUHU21523XXSP,2013-02-04 23:58:00,
2013-02-04 19:03:00,35.2,23.2,29.97,East,90,0.0,0.0,61,0.00,,,0.00,WUHU21523XXSP,2013-02-05 00:03:00,
2013-02-04 19:08:00,34.9,23.2,29.97,East,90,0.0,0.0,62,0.00,,,0.00,WUHU21523XXSP,2013-02-05 00:08:00,
2013-02-04 19:13:00,34.9,23.2,29.97,East,90,0.0,0.0,62,0.00,,,0.00,WUHU21523XXSP,2013-02-05 00:13:00,
2013-02-04 19:18:00,34.7,23.0,29.97,East,90,0.0,0.0,62,0.00,,,0.00,WUHU21523XXSP,2013-02-05 00:18:00,
2013-02-04 19:23:00,34.5,22.8,29.96,East,90,0.0,0.0,62,0.00,,,0.00,WUHU21523XXSP,2013-02-05 00:23:00,
2013-02-04 19:28:00,34.5,22.8,29.97,East,90,0.0,0.0,62,0.00,,,0.00,WUHU21523XXSP,2013-02-05 00:28:00,
2013-02-04 19:33:00,34.3,23.0,29.97,East,90,0.0,0.0,63,0.00,,,0.00,WUHU21523XXSP,2013-02-05 00:33:00,
2013-02-04 19:38:00,34.2,22.8,29.97,East,90,0.0,0.0,63,0.00,,,0.00,WUHU21523XXSP,2013-02-05 00:38:00,
2013-02-04 19:43:00,34.2,22.8,29.96,East,90,0.0,0.0,63,0.00,,,0.00,WUHU21523XXSP,2013-02-05 00:43:00,
2013-02-04 19:48:00,34.0,22.6,29.96,East,90,0.0,0.0,63,0.00,,,0.00,WUHU21523XXSP,2013-02-05 00:48:00,
2013-02-04 19:53:00,33.8,22.5,29.96,East,90,0.0,0.0,63,0.00,,,0.00,WUHU21523XXSP,2013-02-05 00:53:00,
2013-02-04 19:58:00,33.6,22.3,29.97,East,90,0.0,0.0,63,0.00,,,0.00,WUHU21523XXSP,2013-02-05 00:58:00,
2013-02-04 20:03:00,33.6,22.7,29.97,East,90,0.0,0.0,64,0.00,,,0.00,WUHU21523XXSP,2013-02-05 01:03:00,
2013-02-04 20:08:00,33.4,22.5,29.98,East,90,0.0,0.0,64,0.00,,,0.00,WUHU21523XXSP,2013-02-05 01:08:00,
2013-02-04 20:13:00,33.3,22.5,29.98,East,90,0.0,0.0,64,0.00,,,0.00,WUHU21523XXSP,2013-02-05 01:13:00,
2013-02-04 20:18:00,33.3,22.3,29.97,East,90,0.0,0.0,64,0.00,,,0.00,WUHU21523XXSP,2013-02-05 01:18:00,
2013-02-04 20:23:00,33.1,22.5,29.98,East,90,0.0,0.0,65,0.00,,,0.00,WUHU21523XXSP,2013-02-05 01:23:00,
2013-02-04 20:28:00,32.9,22.4,29.98,East,90,0.0,0.0,65,0.00,,,0.00,WUHU21523XXSP,2013-02-05 01:28:00,
2013-02-04 20:33:00,32.9,22.4,29.97,South,180,3.6,3.6,65,0.00,,,0.00,WUHU21523XXSP,2013-02-05 01:33:00,
2013-02-04 20:38:00,32.7,22.2,29.97,SSW,202,0.0,3.6,65,0.00,,,0.00,WUHU21523XXSP,2013-02-05 01:38:00,
2013-02-04 20:43:00,32.7,22.2,29.96,SSW,202,0.0,0.0,65,0.00,,,0.00,WUHU21523XXSP,2013-02-05 01:43:00,
2013-02-04 20:48:00,32.5,22.4,29.96,SSW,202,0.0,0.0,66,0.00,,,0.00,WUHU21523XXSP,2013-02-05 01:48:00,
2013-02-04 20:53:00,32.5,22.4,29.96,SSW,202,0.0,0.0,66,0.00,,,0.00,WUHU21523XXSP,2013-02-05 01:53:00,
2013-02-04 20:58:00,32.5,22.4,29.97,SSW,202,0.0,0.0,66,0.00,,,0.00,WUHU21523XXSP,2013-02-05 01:58:00,
2013-02-04 21:03:00,32.5,22.4,29.97,SSW,202,0.0,0.0,66,0.00,,,0.00,WUHU21523XXSP,2013-02-05 02:03:00,
2013-02-04 21:08:00,32.5,22.8,29.98,SSW,202,0.0,0.0,67,0.00,,,0.00,WUHU21523XXSP,2013-02-05 02:08:00,
2013-02-04 21:13:00,32.5,22.8,29.97,SSW,202,0.0,0.0,67,0.00,,,0.00,WUHU21523XXSP,2013-02-05 02:13:00,
2013-02-04 21:18:00,32.4,22.6,29.98,SSW,202,0.0,0.0,67,0.00,,,0.00,WUHU21523XXSP,2013-02-05 02:18:00,
2013-02-04 21:23:00,32.4,22.6,29.97,West,270,0.0,0.0,67,0.00,,,0.00,WUHU21523XXSP,2013-02-05 02:23:00,
2013-02-04 21:28:00,32.4,22.6,29.98,West,270,0.0,0.0,67,0.00,,,0.00,WUHU21523XXSP,2013-02-05 02:28:00,
2013-02-04 21:33:00,32.2,22.8,29.98,West,270,0.0,0.0,68,0.00,,,0.00,WUHU21523XXSP,2013-02-05 02:33:00,
2013-02-04 21:38:00,32.2,22.8,29.98,West,270,0.0,0.0,68,0.00,,,0.00,WUHU21523XXSP,2013-02-05 02:38:00,
2013-02-04 21:43:00,32.2,22.8,29.98,West,270,0.0,0.0,68,0.00,,,0.00,WUHU21523XXSP,2013-02-05 02:43:00,
2013-02-04 21:48:00,32.2,22.8,29.97,West,270,0.0,0.0,68,0.00,,,0.00,WUHU21523XXSP,2013-02-05 02:48:00,
2013-02-04 21:53:00,31.8,22.5,29.97,West,270,0.0,0.0,68,0.00,,,0.00,WUHU21523XXSP,2013-02-05 02:53:00,
2013-02-04 21:58:00,31.8,22.8,29.97,West,270,0.0,0.0,69,0.00,,,0.00,WUHU21523XXSP,2013-02-05 02:58:00,
2013-02-04 22:03:00,31.8,22.8,29.96,ENE,67,0.0,0.0,69,0.00,,,0.00,WUHU21523XXSP,2013-02-05 03:03:00,
2013-02-04 22:08:00,31.8,22.8,29.96,ENE,67,0.0,0.0,69,0.00,,,0.00,WUHU21523XXSP,2013-02-05 03:08:00,
2013-02-04 22:13:00,31.8,22.8,29.96,SSW,202,0.0,0.0,69,0.00,,,0.00,WUHU21523XXSP,2013-02-05 03:13:00,
2013-02-04 22:18:00,31.8,23.2,29.95,South,180,0.0,0.0,70,0.00,,,0.00,WUHU21523XXSP,2013-02-05 03:18:00,
2013-02-04 22:23:00,31.8,22.8,29.96,SSE,157,0.0,0.0,69,0.00,,,0.00,WUHU21523XXSP,2013-02-05 03:23:00,
2013-02-04 22:28:00,31.6,22.6,29.95,SSE,157,0.0,0.0,69,0.00,,,0.00,WUHU21523XXSP,2013-02-05 03:28:00,
2013-02-04 22:33:00,31.6,22.6,29.94,SSE,157,0.0,0.0,69,0.00,,,0.00,WUHU21523XXSP,2013-02-05 03:33:00,
2013-02-04 22:38:00,31.6,23.0,29.95,SSE,157,0.0,0.0,70,0.00,,,0.00,WUHU21523XXSP,2013-02-05 03:38:00,
2013-02-04 22:43:00,31.5,22.8,29.95,SSE,157,0.0,0.0,70,0.00,,,0.00,WUHU21523XXSP,2013-02-05 03:43:00,
2013-02-04 22:48:00,31.3,22.6,29.94,North,0,0.0,0.0,70,0.00,,,0.00,WUHU21523XXSP,2013-02-05 03:48:00,
2013-02-04 22:53:00,31.3,23.0,29.95,North,0,0.0,0.0,71,0.00,,,0.00,WUHU21523XXSP,2013-02-05 03:53:00,
2013-02-04 22:58:00,31.1,22.8,29.95,West,270,0.0,0.0,71,0.00,,,0.00,WUHU21523XXSP,2013-02-05 03:58:00,
2013-02-04 23:03:00,31.1,22.8,29.95,West,270,0.0,0.0,71,0.00,,,0.00,WUHU21523XXSP,2013-02-05 04:03:00,
2013-02-04 23:08:00,30.9,22.6,29.94,NE,45,0.0,0.0,71,0.00,,,0.00,WUHU21523XXSP,2013-02-05 04:08:00,
2013-02-04 23:13:00,30.9,22.6,29.94,NE,45,0.0,0.0,71,0.00,,,0.00,WUHU21523XXSP,2013-02-05 04:13:00,
2013-02-04 23:18:00,30.9,22.6,29.94,NE,45,0.0,0.0,71,0.00,,,0.00,WUHU21523XXSP,2013-02-05 04:18:00,
2013-02-04 23:23:00,30.9,22.6,29.94,NE,45,0.0,0.0,71,0.00,,,0.00,WUHU21523XXSP,2013-02-05 04:23:00,
2013-02-04 23:28:00,30.9,22.6,29.94,NE,45,0.0,0.0,71,0.00,,,0.00,WUHU21523XXSP,2013-02-05 04:28:00,
2013-02-04 23:33:00,30.9,22.6,29.94,NE,45,0.0,0.0,71,0.00,,,0.00,WUHU21523XXSP,2013-02-05 04:33:00,
2013-02-04 23:38:00,30.9,22.6,29.94,NE,45,0.0,0.0,71,0.00,,,0.00,WUHU21523XXSP,2013-02-05 04:38:00,
2013-02-04 23:43:00,30.9,22.9,29.94,NE,45,0.0,0.0,72,0.00,,,0.00,WUHU21523XXSP,2013-02-05 04:43:00,
2013-02-04 23:48:00,30.9,22.9,29.94,NE,45,0.0,0.0,72,0.00,,,0.00,WUHU21523XXSP,2013-02-05 04:48:00,
2013-02-04 23:53:00,30.7,22.7,29.93,NE,45,0.0,0.0,72,0.00,,,0.00,WUHU21523XXSP,2013-02-05 04:53:00,
2013-02-04 23:58:00,30.7,23.1,29.93,NE,45,0.0,0.0,73,0.00,,,0.00,WUHU21523XXSP,2013-02-05 04:58:00,